Regional Weather Roundup
Issued by NWS Albany, NY

Home | Current Version | Previous Version | Text Only | Print | Product List | Glossary On
Versions: 1 2 3 4 5 6 7 8 9 10 11 12 13 14 15 16 17 18 19 20 21 22 23 24 25 26 27 28 29 30 31 32 33 34 35 36 37 38 39 40 41 42 43 44 45 46 47
000
ASUS41 KALY 040810
RWRALY

NEW YORK STATE HOURLY WEATHER ROUNDUP
NATIONAL WEATHER SERVICE ALBANY NY
400 AM EDT FRI SEP 04 2015

NOTE: "FAIR" INDICATES FEW OR NO CLOUDS BELOW 12,000 FEET WITH NO
SIGNIFICANT WEATHER AND/OR NO OBSTRUCTIONS TO VISIBILITY.

NYZ032-033-038>043-046>054-057>066-NYZ062>081-040900-
EAST


CITY           SKY/WX    TMP DP  RH WIND       PRES   REMARKS
ALBANY         PTCLDY    66  57  72 CALM      30.00R
GLENS FALLS    CLEAR     60  55  83 CALM      30.02R
POUGHKEEPSIE   CLEAR     69  66  90 CALM      29.96R
NEWBURGH       CLEAR     70  66  88 VRB6      29.98R
MONTGOMERY     CLEAR     69  66  90 CALM      29.97R
WHITE PLAINS   CLEAR     73  67  81 N6        29.94R
ISLIP          PTCLDY    73  69  87 N7        29.91R FOG
NEW YORK CITY  MOCLDY    77  67  71 NE7       29.92R
CENTRAL PARK   CLEAR     78  65  63 N3        29.95R
$$

NYZ005>009-017-018-044>046-055-056-040900-
CENTRAL


CITY           SKY/WX    TMP DP  RH WIND       PRES   REMARKS
FULTON         CLEAR     63  60  90 CALM      30.01S
SYRACUSE       PTCLDY    65  65 100 E5        30.00S FOG
ROME           CLEAR     64  62  93 CALM      30.03S
ELMIRA         CLOUDY    69  68  96 S3        30.00S FOG
BINGHAMTON     FOG       66  66 100 NE6       30.03R VSB 1/4
MONTICELLO     CLEAR     64  64 100 N3        30.03R
$$

NYZ026>034-041>043-040900-
NORTH


CITY           SKY/WX    TMP DP  RH WIND       PRES   REMARKS
WATERTOWN      CLEAR     59  57  93 NE3       30.02S FOG
FORT DRUM      NOT AVBL
MASSENA        CLEAR     58  48  69 NE3       30.10R
SARANAC LAKE   CLEAR     42  41  96 CALM      30.10R
PLATTSBURGH    CLEAR     57  48  72 NW7       30.07R
$$

NYZ001>004-010>016-019>021-040900-
WEST


CITY           SKY/WX    TMP DP  RH WIND       PRES   REMARKS
NIAGARA FALLS  MOCLDY    69  66  90 E3        30.00R FOG
BUFFALO        PTCLDY    69  66  90 NE7       30.01R FOG
DUNKIRK        PTCLDY    66  65  96 SW3       29.99R FOG
JAMESTOWN      PTCLDY    68  64  88 SE3       30.03S
WELLSVILLE     CLOUDY    67  65  93 CALM      30.08R FOG
ROCHESTER      CLEAR     67  64  90 CALM      30.02R FOG
PENN YAN       CLOUDY    64  62  93 CALM      30.03R FOG
$$

             KEY
       WCI = WIND CHILL INDEX
       VSB = VISIBILITY
       HX  = HEAT INDEX
$$


USA.gov is the U.S. government's official web portal to all federal, state and local government web resources and services.